SCP
0 0 0 0 0 0 0 0 0 0 0 -0 -0 0 0 0 0 0 0 0 0 0 0 0 0 0 0 0 0 0 0 0 0 0 0 0 0 0 0 0 0 0 0 0 0 0 0 0 0
0 0 0 0 0 0 0 0 0 0 0 -0 -0 -0 0 0 0 0 0 0 0 0 0 0 0 0 0 0 0 0 0 0 0 0 0 0 0 0 0 0 0 0 0 0 0 0 0 0 0
0 0 0 0 0 0 0 0 0 0 0 -0 -0 0 0 0 0 0 0 0 0 0 0 0 0 0 0 0 0 0 0 0 0 0 0 0 0 0 0 0 0 0 0 0 0 0 0 0 0
0 0 0 0 0 0 0 0 0 0 0 0 0 0 0 0 0 0 0 0 0 0 0 0 0 0 0 0 0 0 0 0 0 0 0 0 0 0 0 0 0 0 0 0 0 0 0 0 0
0 0 0 0 0 0 0 0 0 0 0 0 0 0 0 0 0 0 0 0 0 0 0 0 0 0 0 0 0 0 0 0 0 0 0 0 0 0 0 0 0 0 0 0 0 0 0 0 0
0 0 0 0 0 0 0 0 0 0 0 0 0 0 0 0 0 0 0 0 0 0 0 0 0 0 0 0 0 0 0 0 0 0 0 0 0 0 0 0 0 0 0 0 0 0 0 0 0
0 0 0 0 0 0 0 0 0 0 0 0 0 0 0 0 0 0 0 0 0 0 0 0 0 0 0 0 0 0 0 0 0 0 0 0 0 0 0 0 0 0 0 0 0 0 0 0 0
0 0 0 0 0 0 0 0 0 0 0 0 0 0 0 0 0 0 0 0 0 0 0 0 0 0 0 0 0 0 0 0 0 0 0 0 0 0 0 0 0 0 0 0 0 0 0 0 0
0 0 0 0 0 0 0 0 0 0 0 0 0 0 0 0 0 0 0 0 0 0 0 0 0 0 0 0 0 0 0 0 0 0 0 0 0 0 0 0 0 0 0 0 0 0 0 0 0
0 0 0 0 0 0 0 0 0 0 0 0 0 0 0 0 0 0 0 0 0 0 0 0 0 0 0 0 0 0 0 0 0 0 0 0 0 0 0 0 0 0 0 0 0 0 0 0 0
0 0 0 0 0 0 0 0 0 0 0 0 0 0 0 0 0 0 0 0 0 0 0 0 0 0 0 0 0 0 0 0 0 0 0 0 0 0 0 0 0 0 0 0 0 0 0 0 0
0 0 0 0 0 0 0 0 0 0 0 0 0 0 0 0 0 0 0 0 0 0 0 0 0 0 0 0 0 0 0 0 0 0 0 0 0 0 0 0 0 0 0 0 0 0 0 0 0
0 0 0 0 0 0 0 0 0 0 0 0 0 0 0 0 0 0 0 0 0 0 0 0 0 0 0 0 0 0 0 0 0 0 0 0 0 0 0 0 0 0 0 0 0 0 0 0 0
0 0 0 0 0 0 0 0 0 0 0 0 0 0 0 0 0 0 0 0 0 0 0 0 0 0 0 0 0 0 0 0 0 0 0 0 0 0 0 0 0 0 0 0 0 0 0 0 0
0 0 0 0 0 0 0 0 0 0 0 0 0 0 0 0 0 0 0 0 0 0 0 0 0 0 0 0 0 0 0 0 0 0 0 0 0 0 0 0 0 0 0 0 0 0 0 0 0
0 0 0 0 0 0 0 0 0 0 0 0 0 0 0 0 0 0 0 0 0 0 0 0 0 0 0 0 0 0 0 0 0 0 0 0 0 0 0 0 0 0 0 0 0 0 0 0 0
0 0 0 0 0 0 0 0 0 0 0 0 0 0 0 0 0 0 0 0 0 0 0 0 0 0 0 0 0 0 0 0 0 0 0 0 0 0 0 0 0 0 0 0 0 0 0 0 0
0 0 0 0 0 0 0 0 0 0 0 0 0 0 0 0 0 0 0 0 0 0 0 0 0 0 0 0 0 0 0 0 0 0 0 0 0 0 0 0 0 0 0 0 0 0 0 0 0
0 0 0 0 0 0 0 0 0 0 0 0 0 0 0 0 0 0 0 0 0 0 0 0 0 0 0 0 0 0 0 0 0 0 0 0 0 0 0 0 0 0 0 0 0 0 0 0 0
0 0 0 0 0 0 0 0 0 0 0 0 0 0 0 0 0 0 0 0 0 0 0 0 0 0 0 0 0 0 0 0 0 0 0 0 0 0 0 0 0 0 0 0 0 0 0 0 0
0 0 0 0 0 0 0 0 0 0 0 0 0 0 0 0 0 0 0 0 0 0 0 0 0 0 0 0 0 0 0 0 0 0 0 0 0 0 0 0 0 0 0 0 0 0 0 0 0
0 0 0 0 0 0 0 0 0 0 0 0 0 0 0 0 0 0 0 0 0 0 0 0 0 0 0 0 0 0 0 0 0 0 0 0 0 0 0 0 0 0 0 0 0 0 0 0 0
0 0 0 0 0 0 0 0 0 0 0 0 0 0 0 0 0 0 0 0 0 0 0 0 0 0 0 0 0 0 0 0 0 0 0 0 0 0 0 0 0 0 0 0 0 0 0 0 0
0 0 0 0 0 0 0 0 0 0 0 0 0 0 0 0 0 0 0 0 0 0 0 0 0 0 0 0 0 0 0 0 0 0 0 0 0 0 0 0 0 0 0 0 0 0 0 0 0
0 0 0 0 0 0 0 0 0 0 0 0 0 0 0 0 0 0 0 0 0 0 0 0 0 0 0 0 0 0 0 0 0 0 0 0 0 0 0 0 0 0 0 0 0 0 0 0 0
0 0 0 0 0 0 0 0 0 0 0 0 0 0 0 0 0 0 0 0 0 0 0 0 0 0 0 0 0 0 0 0 0 0 0 0 0 0 0 0 0 0 0 0 0 0 0 0 0
0 0 0 0 0 0 0 0 0 0 0 0 0 0 0 0 0 0 0 0 0 0 0 0 0 0 0 0 0 0 0 0 0 0 0 0 0 0 0 0 0 0 0 0 0 0 0 0 0
0 0 0 0 0 0 0 0 0 0 0 0 0 0 0 0 0 0 0 0 0 0 0 0 0 0 0 0 0 0 0 0 0 0 0 0 0 0 0 0 0 0 0 0 0 0 0 0 0
0 0 0 0 0 0 0 0 0 0 0 0 0 0 0 0 0 0 0 0 0 0 0 0 0 0 0 0 0 0 0 0 0 0 0 0 0 0 0 0 0 0 0 0 0 0 0 0 0
0 0 0 0 0 0 0 0 0 0 0 0 0 0 0 0 0 0 0 0 0 0 0 0 0 0 0 0 0 0 0 0 0 0 0 0 0 0 0 0 0 0 0 0 0 0 0 0 0
Wind_Speed
11 5 3 5 7 6 1 1 1 1 1 1 1 4 6 4 3 2 1 5 7 7 5 7 10 12 12 12 12 12 13 14 15 15 15 15 15 15 15 15 14 15 15 16 16 16 16 16 16
5 4 6 6 6 3 2 2 2 2 3 4 3 3 3 1 1 4 3 5 7 7 6 7 10 11 12 12 12 12 13 14 15 15 15 15 14 14 14 14 14 14 15 15 15 15 16 15 15
4 5 6 5 4 4 3 2 3 1 3 3 3 2 2 2 3 4 4 8 7 6 6 8 11 12 12 12 12 12 13 14 14 14 14 14 14 14 14 14 14 14 14 14 14 15 15 14 14
4 5 6 5 1 3 3 2 3 3 2 2 4 3 0 0 3 4 8 8 8 6 6 7 11 12 12 12 12 12 13 13 14 14 14 14 13 13 13 13 13 13 13 13 13 14 14 14 13
5 5 5 3 2 3 2 2 3 2 3 2 4 4 1 3 2 8 10 8 9 7 5 6 10 10 11 12 12 12 12 13 13 13 13 13 13 13 12 12 12 12 12 13 13 13 13 12 12
5 5 4 1 3 4 2 2 3 2 2 3 5 4 1 1 6 9 9 7 7 8 6 5 8 9 10 10 10 11 11 12 12 12 12 13 12 12 12 12 12 11 11 11 12 12 12 11 11
4 4 4 3 2 3 2 3 4 4 3 5 6 5 1 2 5 7 7 7 6 6 6 5 5 6 8 9 9 10 10 11 11 12 11 11 11 11 10 10 11 11 11 11 11 10 10 10 10
4 5 3 3 3 3 1 2 2 5 3 2 5 6 5 5 7 7 7 7 6 5 5 5 5 4 5 6 9 10 10 10 10 10 10 10 9 9 8 7 9 10 10 10 10 9 9 9 9
3 5 4 5 5 4 1 1 0 1 5 2 1 2 2 9 10 9 7 7 7 7 5 5 5 5 5 5 6 8 9 9 10 8 10 8 5 5 5 5 7 8 9 9 8 8 8 8 7
4 4 8 5 5 3 1 2 2 3 2 1 1 0 4 10 13 13 11 12 12 11 9 6 6 6 5 4 4 4 4 5 5 5 5 4 4 3 4 5 6 6 6 6 7 7 7 5 3
5 7 5 4 3 2 1 1 2 5 4 7 7 6 9 11 13 13 13 12 12 10 10 8 7 6 6 4 4 3 3 3 4 5 5 4 3 3 3 2 2 3 3 3 3 4 2 2 2
4 4 3 3 2 2 2 2 2 5 6 3 5 8 11 15 16 16 15 13 10 10 11 9 8 7 6 5 5 4 4 3 3 4 6 5 3 3 3 2 2 2 1 1 1 1 1 2 2
4 3 3 2 2 2 2 3 3 6 5 1 4 9 12 15 14 12 9 8 10 11 12 11 10 9 7 6 5 5 5 5 5 4 5 6 4 4 4 3 2 2 2 2 2 1 1 1 1
5 3 2 2 2 2 3 3 2 7 2 2 5 9 11 14 13 9 9 11 12 13 12 11 11 10 9 8 7 6 6 5 5 5 6 6 5 5 4 4 3 3 3 3 2 2 2 2 1
3 2 2 3 3 2 2 6 8 7 3 4 6 8 9 10 9 12 13 13 13 11 11 12 12 11 10 9 9 6 6 6 6 6 6 7 6 6 5 4 4 4 3 3 2 2 1 1 1
4 3 4 4 5 4 5 11 9 5 6 8 8 7 9 11 11 12 10 10 10 9 10 11 10 12 12 10 8 6 6 7 6 6 6 8 8 7 6 5 5 4 3 3 3 2 2 2 2
4 6 6 4 4 4 7 9 8 4 7 9 8 8 9 9 11 12 11 11 11 11 11 12 12 13 13 11 8 7 6 7 7 6 6 8 9 8 7 6 5 5 4 4 3 3 3 3 3
8 6 5 7 4 5 7 10 10 4 6 9 8 8 8 11 15 13 12 11 10 10 11 11 12 12 11 9 7 6 7 7 6 7 8 9 9 9 8 6 6 6 4 4 4 4 3 3 3
7 7 7 6 4 6 9 13 13 8 6 8 9 9 10 13 13 9 9 10 10 10 12 13 14 13 11 9 9 9 9 8 8 8 9 10 10 10 9 7 7 7 7 7 6 4 4 3 3
6 6 6 3 2 5 6 12 12 10 9 11 12 12 12 11 9 9 9 10 13 14 14 14 15 14 14 12 9 6 6 6 7 7 9 11 11 11 10 10 8 8 7 7 7 6 4 3 5
11 10 8 4 0 1 3 9 10 10 9 10 11 11 11 13 14 11 10 11 12 14 16 15 17 16 15 12 6 4 4 3 6 8 10 11 12 12 11 12 10 9 9 9 9 9 8 6 5
15 9 8 6 3 4 4 8 9 8 10 12 14 13 14 14 13 11 11 11 14 16 15 16 16 16 14 14 11 13 12 13 12 9 9 9 12 12 13 12 12 11 10 10 10 10 8 7 7
5 8 9 7 6 6 5 8 10 5 11 12 13 14 15 15 14 14 13 14 13 13 13 14 14 15 14 15 16 15 15 13 7 7 9 10 10 12 13 13 12 12 11 11 10 10 11 9 9
7 6 3 4 6 14 14 11 12 8 11 8 9 12 13 13 13 14 12 10 10 10 11 12 13 15 14 17 17 18 18 15 11 11 11 10 9 10 13 13 13 13 12 12 12 11 12 11 11
9 8 6 9 10 11 9 11 14 9 10 11 12 12 12 11 11 11 11 10 10 10 11 12 14 16 15 17 18 19 19 17 17 14 13 11 10 10 13 13 13 13 13 12 11 11 12 13 12
15 13 10 8 7 4 6 13 12 8 9 9 10 11 10 11 10 11 11 10 10 11 11 12 14 16 15 16 18 17 17 14 13 15 12 12 11 11 10 12 13 13 12 11 11 11 12 10 13
11 12 7 2 1 3 7 9 12 6 7 8 10 10 13 12 11 11 10 9 9 10 11 13 14 14 14 16 16 15 16 16 15 13 12 10 9 8 10 11 13 13 13 12 12 11 12 11 13
8 8 6 9 8 8 7 8 10 6 9 10 11 13 14 12 11 10 9 8 8 8 8 9 12 14 13 13 13 12 14 15 14 11 11 11 10 9 9 11 12 12 12 13 13 12 12 13 13
9 10 8 7 6 7 7 10 10 11 10 11 13 13 12 11 10 8 7 5 6 5 6 7 9 10 10 11 12 11 11 11 11 11 12 11 10 10 11 12 12 12 13 13 13 14 12 14 14
8 10 12 10 8 7 6 12 5 8 7 8 10 10 9 9 7 7 6 5 5 5 5 6 7 8 9 9 9 10 10 9 10 12 12 10 10 10 11 11 11 12 12 12 13 14 14 15 15
Wind_Direction
329 337 42 50 52 51 79 275 217 146 113 59 87 118 137 142 161 181 111 137 132 134 135 131 128 125 123 122 121 121 120 117 114 111 108 106 105 104 103 102 102 103 101 98 96 95 94 92 90
325 356 46 55 78 78 277 262 207 183 151 131 80 87 97 104 96 122 136 145 135 131 127 128 126 128 128 126 124 124 123 120 118 114 112 110 108 108 107 106 106 106 104 100 97 96 95 95 92
353 44 67 67 95 166 213 224 190 104 129 130 91 66 116 159 156 162 162 141 125 122 123 131 129 132 132 130 127 126 126 124 122 120 117 114 112 111 110 110 110 110 108 103 99 98 97 96 94
38 38 52 69 103 215 222 219 176 132 113 94 117 97 62 61 174 165 141 134 125 123 125 136 135 137 137 135 134 132 131 129 126 124 122 119 117 115 114 113 113 113 111 106 102 99 99 99 97
51 62 54 45 285 278 255 205 160 162 154 127 128 134 175 341 121 135 139 138 138 133 131 138 138 140 141 141 139 139 136 133 130 128 125 123 121 119 117 116 116 117 114 110 105 102 100 99 99
53 66 87 213 272 298 285 163 148 160 151 143 137 138 201 34 138 146 142 141 142 140 135 137 141 141 142 142 141 141 139 137 134 132 130 128 126 124 122 121 121 121 119 114 109 105 101 100 101
104 106 160 200 241 282 252 158 170 169 181 194 160 137 224 178 163 145 137 134 136 137 134 132 135 140 143 143 140 139 137 137 136 136 132 129 128 126 124 125 127 127 124 118 112 106 103 103 103
121 114 152 198 206 245 238 168 188 166 181 136 146 154 210 188 150 134 131 139 144 145 143 141 136 135 135 139 141 137 135 134 132 129 126 127 125 121 121 125 130 130 125 119 112 104 99 98 99
91 101 188 206 198 231 205 157 60 118 122 133 226 211 222 139 140 144 150 162 168 169 163 154 146 143 139 137 141 137 135 131 126 124 125 117 110 110 114 129 130 129 127 123 114 102 93 87 88
108 165 211 207 197 207 205 185 175 125 137 203 235 219 127 143 160 170 178 181 184 185 181 172 163 155 149 144 135 132 129 130 126 128 126 118 118 119 118 126 124 119 117 117 110 96 85 82 76
160 191 210 216 203 200 193 206 170 149 207 217 206 182 155 165 176 186 190 191 191 188 187 183 175 166 158 149 149 142 135 135 136 140 137 129 122 120 113 109 104 98 95 82 80 75 76 87 96
179 220 204 212 178 183 197 189 190 196 221 237 210 166 169 178 189 195 196 194 190 190 193 189 180 175 171 162 163 160 156 156 158 160 152 145 144 149 150 148 147 139 125 128 103 93 94 99 109
197 225 220 231 208 217 214 224 224 240 254 298 141 157 184 191 199 203 199 194 193 197 197 193 186 184 178 173 176 177 176 174 172 169 169 165 164 171 172 173 172 175 167 169 170 164 149 140 138
204 214 242 230 210 207 211 254 233 250 221 159 167 185 198 203 202 198 199 199 201 203 201 194 193 189 184 185 187 185 185 180 175 181 182 178 175 176 179 184 188 193 189 186 186 190 179 176 166
144 159 279 241 197 214 177 265 234 236 182 206 210 209 213 219 211 210 209 207 204 203 199 196 196 192 191 193 193 189 189 186 188 190 189 187 185 184 185 189 197 201 191 186 184 192 176 180 181
124 159 233 243 190 193 171 251 252 223 199 229 230 225 224 227 224 224 218 213 204 198 197 198 196 196 198 198 196 194 192 193 196 193 192 195 194 189 187 195 204 196 184 182 185 185 185 198 197
168 199 213 239 204 177 189 242 258 217 203 232 238 233 231 236 237 232 223 215 207 202 198 198 198 198 200 200 198 198 196 201 201 197 197 199 199 195 193 201 203 189 187 191 191 192 185 196 201
185 189 196 211 214 182 212 244 261 251 219 238 246 244 238 237 239 232 224 219 211 204 201 201 202 201 197 196 196 199 205 209 206 204 205 199 200 198 198 202 200 189 192 198 195 196 194 193 185
160 171 201 216 204 188 228 249 258 256 244 249 250 247 244 245 247 236 221 214 209 205 203 204 204 202 194 197 202 206 212 210 210 210 207 204 202 199 201 205 200 196 203 205 195 187 194 202 161
185 194 205 231 198 198 246 260 259 250 239 235 240 244 244 249 256 241 225 211 209 211 210 208 208 202 201 204 202 200 199 206 210 208 209 207 206 202 204 206 204 201 205 205 198 189 188 194 176
207 207 200 193 135 249 305 285 257 254 238 243 240 240 241 240 245 243 229 219 214 214 212 210 209 206 204 200 186 178 180 191 203 211 214 211 208 207 207 207 206 203 204 210 207 200 198 204 199
222 202 187 183 182 238 199 272 261 243 249 243 243 241 244 244 242 241 233 224 216 217 213 212 210 208 203 195 195 197 206 216 218 214 213 208 207 210 210 209 208 207 208 212 210 206 207 202 208
186 161 178 194 207 242 213 253 267 225 248 246 241 240 242 243 240 239 234 228 221 216 211 211 209 209 202 199 203 205 216 223 216 203 208 211 210 211 211 210 211 212 213 215 211 206 208 210 213
135 121 147 183 208 240 222 226 263 217 225 237 239 239 242 244 242 243 241 232 228 217 210 208 206 210 204 202 205 209 216 218 212 209 213 214 215 214 213 211 214 216 216 216 216 213 212 215 217
164 163 197 207 215 236 191 211 250 222 213 215 229 238 242 244 244 246 244 235 230 220 213 208 207 212 207 205 208 212 216 217 218 217 217 215 216 218 216 211 216 218 220 219 215 215 218 218 218
190 186 202 209 212 235 179 223 249 230 227 228 236 243 250 250 245 245 244 237 232 224 215 209 210 214 208 207 211 214 215 217 222 221 218 217 220 221 212 209 216 219 219 219 217 220 223 221 224
178 204 199 192 188 232 230 260 291 252 251 247 249 252 253 253 251 249 248 240 233 227 218 211 212 215 211 209 211 213 214 217 221 220 218 220 221 215 206 207 214 218 219 219 218 224 226 224 227
178 160 165 200 209 228 240 235 242 229 230 237 241 244 250 254 256 256 253 246 239 231 224 214 213 216 215 211 211 214 215 217 221 218 217 218 219 212 207 210 214 217 218 219 220 226 228 227 229
172 183 191 198 205 208 239 250 223 216 214 223 235 242 248 252 256 261 267 260 251 245 232 222 217 216 214 211 212 213 215 215 216 220 222 222 220 213 214 215 215 217 220 219 221 226 226 229 233
188 194 190 205 213 212 237 260 226 212 222 225 240 248 254 258 262 265 266 265 258 250 240 229 222 218 217 212 209 213 214 211 214 221 223 220 221 218 218 217 218 221 222 221 223 228 229 231 234